Погода в Пис-Ривер

Канада     56°14′20″N   117°17′18″W
темп.,
°C
ветер,
м/с
пор.,
м/с
влажн.,
%
обл.,
%
осадки,
мм/ч
давл.,
гПа
погр.,
м
6 марта, сб
сб623:000ююз5128873 0.0 1000238
02:00+1ююз51280100 0.0 1000289
05:00−1юз5177483 0.0 1000390
08:00−3юз4975100 0.0 1001159
11:000юз4137750 0.0 1001624
14:00+1ююз410940 0.0 1001397
17:00+1юз35902 0.0 1002139
20:00−2юз47840 0.0 1004126
7 марта, вс
вс723:00−4юз35840 0.0 100681
02:00−5юз348569 0.0 100777
05:00−7юз238468 0.0 100930
08:00−8юз228311 0.0 100923
11:00−3юз238332 0.0 1009173
14:00−1ююз228570 0.0 1009283
17:00−2юз009179 0.0 101124
20:00−5с239262 0.0 101340
8 марта, пн
пн823:00−6ссв379558 0.0 1016172
02:00−8с479498 0.0 1018207
05:00−8ссв359498 0.0 1020160
08:00−9ссв3595100 0.0 1020129
11:00−6всв2486100 0.0 1020362
14:00−3всв2488100 0.1 1018405
17:00−3всв2490100 0.3 1017391
20:00−6всв2394100 0.0 101659
9 марта, вт
вт923:00−6всв2294100 0.1 101635
02:00−6ссв1297100 1.1 101456
05:00−7ссз4895100 1.9 1015355
08:00−11ссз4990100 0.9 1017510
11:00−9ссз258399 0.9 1018563
14:00−7юз2375100 0.0 1016769
17:00−8ююз238894 0.0 1013202
20:00−13ююв11910 0.0 101321
10 марта, ср
ср1023:00−14ююв119214 0.0 101320
02:00−14зюз229029 0.0 101527
05:00−13сз129565 0.3 101680
08:00−15с359783 0.1 1017123
11:00−11с228482 0.1 1017347
14:00−9юз217562 0.0 1015510
17:00−10юз128558 0.0 1015146
20:00−14юз228692 0.0 101531